Telluride, CO

7:13 AM MDT on April 30, 2017 (GMT -0600)
Telluride Regional

Weather History for KTEX - April, 2012

Change the Weather History Date:

Thursday, April 19, 2012

  Actual Average Record
Temperature  
Mean Temperature 41 °F -  
Max Temperature 50 °F 45 °F 59 °F (1997)
Min Temperature 32 °F 26 °F 14 °F (2013)
Degree Days  
Heating Degree Days 24    
Moisture  
Dew Point 30 °F    
Average Humidity 67    
Maximum Humidity 100    
Minimum Humidity 37    
Precipitation  
Precipitation 0.03 in - - ()
Sea Level Pressure  
Sea Level Pressure 30.18 in    
Wind  
Wind Speed 4 mph (West)    
Max Wind Speed 18 mph    
Max Gust Speed 26 mph    
Visibility 9 miles    
Events Rain , Snow , Thunderstorm    
Averages and records for this station are not official NWS values.
T = Trace of Precipitation, MM = Missing Value Source: NWS Daily Summary

Daily Weather History Graph

Daily Weather History Graph

Search for Another Location

Airport or City:

Trip Planner

Search our weather history database for the weather conditions in past years. The results will help you decide how hot, cold, wet, or windy it might be!

Date:

Astronomy

Apr. 19, 2012 Rise Set
Actual Time 6:30 AM MDT 7:51 PM MDT
Civil Twilight 6:02 AM MDT 8:19 PM MDT
Nautical Twilight 5:29 AM MDT 8:52 PM MDT
Astronomical Twilight 4:55 AM MDT 9:26 PM MDT
Moon 5:24 AM MDT (4/19) 6:43 PM MDT (4/19)
Length of Visible Light 14h 16m
Length of Day
13h 21m
Waning Crescent, 2% of the Moon is Illuminated
Apr 19
Waning Crescent
Apr 21
New
Apr 29
First Quarter
May 5
Full
May 12
Last Quarter

Hourly Weather History & Observations

Time (MDT) Temp. Windchill Dew Point Humidity Pressure Visibility Wind Dir Wind Speed Gust Speed Precip Events Conditions
12:15 AM 44.6 °F 41.4 °F 26.6 °F 49% 30.18 in 10.0 mi NNW 5.8 mph 19.6 mph N/A   Overcast
12:35 AM 42.8 °F - 30.2 °F 61% 30.18 in 10.0 mi Calm Calm - N/A   Overcast
12:55 AM 42.8 °F - 30.2 °F 61% 30.18 in 10.0 mi Calm Calm - N/A   Overcast
1:15 AM 42.8 °F - 30.2 °F 61% 30.18 in 10.0 mi Calm Calm - N/A   Overcast
1:35 AM 41.0 °F 37.1 °F 30.2 °F 65% 30.17 in 10.0 mi ENE 5.8 mph - N/A   Overcast
2:15 AM 41.0 °F - 30.2 °F 65% 30.16 in 10.0 mi Calm Calm - N/A   Overcast
2:35 AM 41.0 °F 39.0 °F 30.2 °F 65% 30.15 in 10.0 mi East 3.5 mph - N/A   Overcast
2:55 AM 41.0 °F 37.1 °F 32.0 °F 70% 30.14 in 10.0 mi East 5.8 mph - N/A   Overcast
3:15 AM 41.0 °F 38.0 °F 32.0 °F 70% 30.15 in 10.0 mi ESE 4.6 mph - N/A   Overcast
3:35 AM 41.0 °F - 30.2 °F 65% 30.15 in 10.0 mi Calm Calm - N/A   Overcast
3:55 AM 41.0 °F - 30.2 °F 65% 30.15 in 10.0 mi Calm Calm - N/A   Mostly Cloudy
4:15 AM 41.0 °F - 30.2 °F 65% 30.15 in 10.0 mi Calm Calm - N/A   Mostly Cloudy
4:35 AM 41.0 °F - 32.0 °F 70% 30.14 in 10.0 mi Calm Calm - N/A   Overcast
4:55 AM 41.0 °F - 32.0 °F 70% 30.14 in 10.0 mi Calm Calm - N/A   Overcast
5:15 AM 39.2 °F - 32.0 °F 75% 30.13 in 10.0 mi Calm Calm - N/A   Mostly Cloudy
5:35 AM 39.2 °F - 32.0 °F 75% 30.13 in 10.0 mi Calm Calm - N/A   Overcast
5:55 AM 39.2 °F 35.0 °F 28.4 °F 65% 30.14 in 10.0 mi West 5.8 mph - N/A   Overcast
6:15 AM 41.0 °F 34.7 °F 28.4 °F 61% 30.13 in 10.0 mi West 10.4 mph - N/A   Overcast
6:35 AM 37.4 °F 30.3 °F 30.2 °F 75% 30.14 in 10.0 mi West 10.4 mph - N/A   Overcast
6:55 AM 35.6 °F 26.6 °F 32.0 °F 87% 30.15 in 7.0 mi West 13.8 mph - N/A Snow Light Snow
7:35 AM 33.8 °F 26.4 °F 32.0 °F 93% 30.17 in 0.8 mi West 9.2 mph - N/A Snow Light Snow
7:55 AM 33.8 °F 27.0 °F 32.0 °F 93% 30.18 in 0.2 mi WSW 8.1 mph - N/A Snow Snow
8:15 AM 32.0 °F 25.6 °F 32.0 °F 100% 30.18 in 0.2 mi WSW 6.9 mph - N/A Snow Light Snow
8:35 AM 32.0 °F 25.6 °F 32.0 °F 100% 30.18 in 0.5 mi SSW 6.9 mph - N/A Snow Snow
8:55 AM 32.0 °F 26.4 °F 32.0 °F 100% 30.19 in 0.5 mi South 5.8 mph - N/A Snow Snow
9:15 AM 33.8 °F 29.6 °F 32.0 °F 93% 30.19 in 4.0 mi ESE 4.6 mph - N/A Snow Light Snow
9:35 AM 33.8 °F - 32.0 °F 93% 30.19 in 10.0 mi Calm Calm - N/A   Overcast
9:55 AM 33.8 °F - 32.0 °F 93% 30.18 in 10.0 mi Calm Calm - 0.03 in   Overcast
10:15 AM 37.4 °F - 32.0 °F 81% 30.18 in 10.0 mi Calm Calm - N/A   Mostly Cloudy
10:35 AM 37.4 °F - 30.2 °F 75% 30.18 in 10.0 mi Calm Calm - N/A   Mostly Cloudy
10:55 AM 37.4 °F - 32.0 °F 81% 30.18 in 10.0 mi Calm Calm - N/A   Mostly Cloudy
11:15 AM 39.2 °F - 30.2 °F 70% 30.18 in 10.0 mi Calm Calm - N/A   Scattered Clouds
11:35 AM 41.0 °F - 26.6 °F 57% 30.18 in 10.0 mi Calm Calm - N/A   Scattered Clouds
11:55 AM 42.8 °F 38.6 °F 28.4 °F 57% 30.19 in 10.0 mi West 6.9 mph - N/A   Scattered Clouds
12:15 PM 42.8 °F 39.3 °F 26.6 °F 53% 30.18 in 10.0 mi SW 5.8 mph - N/A   Mostly Cloudy
12:35 PM 44.6 °F 40.2 °F 24.8 °F 46% 30.18 in 10.0 mi WSW 8.1 mph - N/A   Mostly Cloudy
12:55 PM 44.6 °F 40.7 °F 24.8 °F 46% 30.18 in 10.0 mi West 6.9 mph 16.1 mph N/A   Mostly Cloudy
1:15 PM 46.4 °F 41.1 °F 24.8 °F 43% 30.16 in 10.0 mi West 11.5 mph - N/A   Mostly Cloudy
1:35 PM 46.4 °F 41.9 °F 24.8 °F 43% 30.16 in 10.0 mi West 9.2 mph - N/A   Overcast
1:55 PM 46.4 °F 40.7 °F 24.8 °F 43% 30.15 in 10.0 mi West 12.7 mph 21.9 mph N/A   Mostly Cloudy
2:35 PM 44.6 °F 41.4 °F 33.8 °F 66% 30.16 in 10.0 mi North 5.8 mph - N/A Thunderstorm Overcast
3:15 PM 48.2 °F - 26.6 °F 43% 30.14 in 10.0 mi West 18.4 mph 24.2 mph N/A Thunderstorm Thunderstorm
3:35 PM 48.2 °F - 28.4 °F 46% 30.13 in 10.0 mi Calm Calm - N/A Thunderstorm Thunderstorm
3:55 PM 50.0 °F - 26.6 °F 40% 30.13 in 10.0 mi NW 5.8 mph - N/A   Overcast
4:15 PM 48.2 °F - 28.4 °F 46% 30.12 in 10.0 mi NNW 8.1 mph - N/A   Overcast
4:35 PM 48.2 °F - 23.0 °F 37% 30.12 in 10.0 mi West 13.8 mph 26.5 mph N/A   Overcast
4:55 PM 46.4 °F 43.5 °F 21.2 °F 37% 30.13 in 10.0 mi NNW 5.8 mph 25.3 mph N/A   Overcast
5:15 PM 41.0 °F - 32.0 °F 70% 30.15 in 10.0 mi Calm Calm - N/A Rain Light Rain
5:35 PM 44.6 °F 40.7 °F 30.2 °F 57% 30.16 in 10.0 mi NNW 6.9 mph - N/A   Mostly Cloudy
5:55 PM 41.0 °F 39.0 °F 32.0 °F 70% 30.16 in 10.0 mi WNW 3.5 mph 18.4 mph N/A Rain Light Rain
6:35 PM 44.6 °F 39.7 °F 30.2 °F 57% 30.16 in 10.0 mi West 9.2 mph - N/A   Mostly Cloudy
6:55 PM 42.8 °F - 32.0 °F 66% 30.17 in 10.0 mi Calm Calm - N/A Rain Light Rain
7:15 PM 41.0 °F 39.0 °F 32.0 °F 70% 30.18 in 10.0 mi NNW 3.5 mph - N/A   Overcast
7:35 PM 41.0 °F 38.0 °F 30.2 °F 65% 30.18 in 10.0 mi NW 4.6 mph - N/A   Light Drizzle
7:55 PM 41.0 °F 37.1 °F 28.4 °F 61% 30.20 in 10.0 mi NW 5.8 mph - N/A   Overcast
8:15 PM 41.0 °F - 30.2 °F 65% 30.21 in 10.0 mi Calm Calm - N/A Rain Light Rain
8:35 PM 41.0 °F 36.4 °F 30.2 °F 65% 30.21 in 10.0 mi NW 6.9 mph - N/A   Overcast
9:15 PM 39.2 °F - 32.0 °F 75% 30.24 in 10.0 mi Calm Calm - N/A   Overcast
9:35 PM 39.2 °F - 32.0 °F 75% 30.24 in 10.0 mi Calm Calm - N/A   Overcast
9:55 PM 39.2 °F 33.6 °F 32.0 °F 75% 30.24 in 10.0 mi South 8.1 mph - N/A   Overcast
10:15 PM 39.2 °F - 32.0 °F 75% 30.26 in 10.0 mi Calm Calm - N/A   Overcast
10:35 PM 39.2 °F - 32.0 °F 75% 30.26 in 10.0 mi Calm Calm - N/A   Overcast
10:55 PM 39.2 °F - 32.0 °F 75% 30.26 in 10.0 mi Calm Calm - N/A   Overcast
11:15 PM 37.4 °F 34.9 °F 32.0 °F 81% 30.27 in 10.0 mi ESE 3.5 mph - N/A   Scattered Clouds
11:35 PM 37.4 °F 33.8 °F 32.0 °F 81% 30.27 in 10.0 mi SE 4.6 mph - N/A   Scattered Clouds
11:55 PM 39.2 °F - 30.2 °F 70% 30.27 in 10.0 mi Calm Calm - N/A   Scattered Clouds